Date,TemperatureHighF,TemperatureAvgF,TemperatureLowF,DewpointHighF,DewpointAvgF,DewpointLowF,HumidityHigh,HumidityAvg,HumidityLow,PressureMaxIn,PressureMinIn,WindSpeedMaxMPH,WindSpeedAvgMPH,GustSpeedMaxMPH,PrecipitationSumIn
2013-2-15,68.3,56.9,56.8,43.9,23.2,-99.9,62,37,36,30.17,30.15,4,-128,12,0.00
2013-2-16,70.3,32.7,54.7,50.4,-27.7,-99.9,82,24,37,30.14,30.00,4,-499,10,0.00
2013-2-17,64.2,18.7,51.0,46.3,-55.1,-99.9,82,18,46,30.00,29.91,3,-689,9,0.00
2013-2-18,51.5,14.4,46.9,41.0,-58.8,-99.9,78,21,64,29.97,29.89,6,-696,16,0.00
2013-2-19,46.9,13.7,41.9,41.2,-57.2,-99.9,86,24,64,29.91,29.70,6,-686,20,0.03
2013-2-20,55.2,17.3,47.1,41.8,-53.8,-99.9,76,20,54,30.02,29.80,10,-667,16,0.00
2013-2-21,58.3,17.5,49.1,39.0,-56.7,-99.9,67,16,40,30.12,29.99,6,-682,14,0.00
2013-2-22,62.1,18.7,49.7,44.5,-54.2,-99.9,77,18,36,30.19,30.12,6,-673,14,0.00
2013-2-23,54.5,18.0,47.5,39.8,-52.6,-99.9,72,20,47,30.21,30.11,7,-652,19,0.00
2013-2-24,64.1,20.4,50.7,38.2,-55.2,-99.9,62,12,24,30.21,30.11,5,-657,14,0.00
2013-2-25,59.3,15.5,52.7,45.6,-60.7,-99.9,64,17,58,30.21,30.15,6,-725,14,0.00
2013-3-4,60.8,22.2,47.9,47.3,-41.0,-99.9,82,28,58,30.09,30.00,5,-589,12,0.00
2013-3-5,52.6,11.8,45.6,43.6,-66.4,-99.9,86,18,71,30.01,29.77,7,-763,21,0.00
2013-3-6,53.6,19.4,49.5,42.7,-47.5,-99.9,76,24,56,30.00,29.78,9,-624,17,0.00
2013-3-7,53.1,16.0,46.3,43.7,-55.4,-99.9,86,22,59,29.94,29.81,5,-684,14,0.00
2013-3-8,54.1,17.9,48.0,44.4,-50.6,-99.9,83,25,64,29.98,29.79,9,-651,17,0.00
2013-3-9,65.0,20.7,54.6,45.2,-52.5,-99.9,65,16,37,30.26,29.99,5,-663,14,0.00
2013-3-10,70.5,25.9,54.5,49.7,-44.3,-99.9,76,17,32,30.29,30.18,3,-606,11,0.00
2013-3-11,73.3,23.8,60.1,48.9,-49.6,-99.9,65,15,34,30.20,30.05,5,-651,11,0.00
2013-3-12,75.0,23.6,60.8,54.9,-48.3,-99.9,70,18,41,30.09,30.00,4,-655,10,0.00
2013-3-13,76.0,24.8,62.3,54.4,-47.2,-99.9,66,18,45,30.10,30.00,5,-653,10,0.00
2013-3-14,67.9,24.5,49.8,52.8,-42.8,-99.9,84,22,33,30.10,30.02,6,-606,14,0.00
2013-3-15,71.7,24.6,49.6,50.4,-42.3,-99.9,84,23,42,30.08,29.99,5,-609,15,0.00
2013-3-16,66.9,21.6,54.7,48.5,-49.0,-99.9,78,19,45,30.07,29.98,7,-648,21,0.00
2013-3-17,67.1,21.1,50.3,46.7,-50.3,-99.9,68,18,37,30.09,30.00,5,-650,8,0.00
2013-3-18,68.9,23.9,47.6,49.6,-44.5,-99.9,84,21,40,30.07,29.97,3,-618,6,0.00
2013-3-19,65.5,20.8,53.5,47.6,-50.6,-99.9,70,19,47,30.08,29.99,7,-659,11,0.00
2013-3-20,59.3,20.4,51.9,52.1,-45.1,-99.9,82,30,77,30.09,29.99,6,-632,11,0.01
2013-3-21,61.2,18.0,50.8,45.5,-55.4,-99.9,70,18,50,30.07,29.98,5,-687,10,0.00
2013-3-22,64.3,20.9,52.2,40.9,-52.5,-99.9,63,15,32,30.07,29.99,5,-652,11,0.00
2013-3-23,68.3,21.3,54.4,43.6,-53.3,-99.9,63,14,29,30.09,29.99,5,-661,9,0.00
2013-3-24,70.6,22.4,53.7,49.2,-49.4,-99.9,63,18,43,30.03,29.91,4,-653,10,0.00
2013-3-25,56.5,19.9,47.9,44.3,-45.7,-99.9,82,27,63,29.97,29.89,5,-619,13,0.00
2013-3-26,65.3,21.6,50.8,48.7,-47.2,-99.9,76,22,54,29.95,29.89,5,-639,12,0.00
2013-3-27,57.6,23.9,52.4,50.7,-35.9,-99.9,82,34,75,29.96,29.88,5,-570,13,0.00
2013-3-28,65.8,24.5,54.4,53.6,-39.2,-99.9,81,29,62,30.03,29.94,4,-599,11,0.00
2013-3-29,74.6,23.4,63.5,53.2,-49.0,-99.9,63,18,47,30.03,29.95,6,-663,15,0.00
2013-3-30,68.4,21.9,56.5,52.2,-46.5,-99.9,79,23,40,30.01,29.93,8,-640,17,0.00
2013-3-31,61.6,21.0,56.0,53.3,-45.8,-99.9,80,27,69,30.01,29.94,7,-640,17,0.00
2013-4-1,64.4,23.5,55.0,52.4,-40.5,-99.9,80,29,64,30.10,29.98,4,-605,11,0.00
2013-4-2,66.9,19.2,54.2,55.8,-53.6,-99.9,80,21,66,30.12,30.07,3,-697,12,0.00
2013-4-3,74.0,33.5,56.1,53.5,-25.2,-99.9,76,28,45,29.97,29.93,5,-506,13,0.00
2013-4-4,58.3,18.3,54.6,51.8,-51.3,-99.9,79,26,78,30.07,29.91,7,-674,20,0.11
2013-4-5,60.8,25.6,55.0,51.9,-34.0,-99.9,79,33,69,30.14,30.06,8,-559,17,0.01
2013-4-6,65.4,25.0,54.9,54.6,-37.1,-99.9,80,30,66,30.14,30.08,6,-584,17,0.00
2013-4-7,61.8,23.2,52.3,51.8,-40.3,-99.9,79,29,67,30.13,29.78,7,-597,21,0.00
2013-4-8,61.5,20.2,51.0,45.3,-49.8,-99.9,72,20,49,30.00,29.77,8,-646,18,0.00
2013-4-9,70.5,23.1,61.1,45.5,-51.7,-99.9,56,13,31,30.06,29.99,6,-659,17,0.00
2013-4-10,81.0,25.9,60.6,52.6,-45.8,-99.9,66,17,34,30.12,30.01,8,-638,20,0.00
2013-4-11,69.9,22.3,54.0,48.7,-47.4,-99.9,68,20,42,30.03,29.80,7,-638,17,0.00
2013-4-12,75.6,22.0,51.7,55.4,-50.2,-99.9,73,19,47,29.86,29.79,5,-667,12,0.00
2013-4-13,59.7,21.9,49.2,47.1,-44.3,-99.9,72,24,58,29.85,29.78,10,-610,26,0.00
2013-4-14,61.6,20.1,50.6,40.9,-50.7,-99.9,69,18,44,29.89,29.82,9,-643,28,0.00
2013-4-15,53.8,18.6,45.6,39.6,-49.7,-99.9,74,22,54,29.93,29.81,11,-632,32,0.00
2013-4-16,62.6,21.4,52.2,41.5,-50.5,-99.9,66,16,36,30.13,29.93,7,-638,14,0.00
2013-4-17,66.6,21.5,57.2,40.9,-54.5,-99.9,54,12,23,30.22,30.13,6,-661,17,0.00
2013-4-18,-200.0,0.0,200.0,-99.9,-99.9,-99.9,0,0,100,30.21,30.17,0,-999,0,0.00
2013-4-23,69.0,20.3,62.1,43.0,-56.6,-99.9,43,12,38,29.83,29.81,3,-691,11,0.00
2013-4-24,65.3,22.0,52.2,50.7,-46.7,-99.9,77,22,58,29.89,29.77,6,-640,13,0.00
2013-4-25,-200.0,0.0,200.0,-99.9,-99.9,-99.9,0,0,100,29.97,29.89,0,-999,0,0.00
2013-4-30,73.5,28.6,64.3,46.8,-41.4,-99.9,53,16,35,29.81,29.75,2,-595,7,0.00
2013-5-1,84.4,28.2,68.8,42.4,-53.1,-99.9,36,7,13,30.02,29.81,5,-645,16,0.00
2013-5-2,92.2,29.7,72.1,45.9,-52.3,-99.9,27,6,13,30.08,30.01,5,-647,12,0.00
2013-5-3,88.0,16.8,80.1,45.1,-71.6,-99.9,28,5,18,30.02,29.83,4,-801,10,0.00
2013-5-4,87.6,46.2,59.0,48.9,-13.7,-99.9,63,20,20,29.61,29.50,8,-400,14,0.00
2013-5-5,60.3,25.4,55.3,50.2,-34.7,-99.9,78,31,68,29.76,29.54,9,-559,29,0.00
2013-5-6,67.0,28.7,60.1,51.5,-32.7,-99.9,73,27,53,29.91,29.76,7,-548,21,0.00
2013-5-7,69.3,28.3,58.5,52.6,-35.0,-99.9,76,25,46,29.99,29.90,6,-567,15,0.00
2013-5-8,61.8,22.8,52.2,51.7,-40.1,-99.9,80,30,69,30.08,29.98,5,-597,11,0.00
2013-5-9,60.7,25.4,52.8,50.8,-34.9,-99.9,79,32,69,30.12,30.05,5,-562,15,0.00
2013-5-10,71.5,31.8,52.7,56.9,-24.6,-99.9,79,33,59,30.14,30.07,5,-507,15,0.00
2013-5-11,82.1,52.2,75.0,59.0,2.8,-99.9,55,31,44,30.03,30.01,5,-348,8,0.00
2013-5-12,73.9,44.3,60.2,59.3,-2.4,-99.9,68,36,45,30.07,29.98,7,-364,16,0.00
2013-5-13,73.0,25.2,62.2,56.5,-43.7,-99.9,64,21,55,30.02,29.90,6,-633,18,0.00
2013-5-14,70.7,23.7,55.5,50.0,-47.4,-99.9,67,18,43,29.94,29.87,6,-641,20,0.00
2013-5-15,-200.0,0.0,200.0,-99.9,-99.9,-99.9,0,0,100,29.98,29.93,0,-999,0,0.00
2013-5-18,-200.0,0.0,200.0,-99.9,-99.9,-99.9,0,0,100,30.07,30.05,0,-999,0,0.00
2013-5-19,79.8,27.5,63.8,50.8,-45.9,-99.9,54,14,28,30.07,29.94,7,-629,13,0.00
2013-5-20,85.7,28.6,59.8,46.8,-47.8,-99.9,61,11,19,29.94,29.87,6,-634,16,0.00
2013-5-21,61.1,5.6,59.5,46.7,-86.3,-99.9,62,5,56,29.94,29.84,12,-905,19,0.00
2013-6-1,89.5,50.3,65.5,54.5,-5.3,-99.9,49,23,27,29.82,29.74,4,-371,12,0.00
2013-6-2,79.6,27.4,65.2,55.9,-43.7,-99.9,62,18,41,29.74,29.59,4,-634,10,0.00
2013-6-3,66.6,24.0,59.0,52.3,-43.6,-99.9,69,23,59,29.81,29.64,9,-625,18,0.00
2013-6-4,63.5,23.9,55.1,52.3,-41.2,-99.9,74,27,66,29.91,29.79,8,-609,16,0.00
2013-6-5,68.8,28.5,54.3,54.9,-31.1,-99.9,75,30,60,29.95,29.86,5,-544,14,0.00
2013-6-6,78.9,34.8,54.4,59.0,-23.4,-99.9,75,29,49,29.90,29.79,5,-505,13,0.00
2013-6-7,93.3,24.1,83.6,63.5,-56.8,-99.9,45,10,33,29.82,29.69,3,-732,7,0.00
2013-6-9,62.1,40.4,57.1,52.3,1.6,-99.9,74,48,70,29.83,29.78,6,-324,18,0.00
2013-6-10,60.8,22.1,56.2,51.4,-43.8,-99.9,75,27,70,29.90,29.76,4,-625,12,0.00
2013-6-11,75.1,31.1,57.8,57.6,-29.3,-99.9,74,28,48,29.94,29.83,5,-537,12,0.00
2013-6-12,69.7,28.4,56.6,49.7,-36.0,-99.9,68,23,44,29.92,29.85,7,-566,18,0.00
2013-6-17,63.1,25.2,57.5,52.8,-36.1,-99.9,73,31,69,30.00,29.97,8,-572,17,0.00
2013-6-18,64.7,26.4,56.0,51.1,-35.7,-99.9,72,28,59,29.98,29.93,11,-566,29,0.00
2013-6-19,66.9,24.1,56.9,50.3,-43.8,-99.9,66,22,52,30.01,29.96,8,-619,21,0.00
2013-6-20,71.2,24.3,57.1,48.8,-45.6,-99.9,68,19,44,29.96,29.91,11,-627,20,0.00
2013-6-21,76.4,26.2,62.7,52.2,-44.7,-99.9,60,17,36,29.92,29.86,6,-628,20,0.00
2013-6-22,83.3,25.6,63.6,53.0,-47.7,-99.9,65,16,33,29.88,29.80,7,-650,17,0.00
2013-6-23,66.6,26.2,61.6,56.5,-36.7,-99.9,72,29,70,29.81,29.75,7,-588,19,0.00
2013-6-24,61.8,25.2,58.5,52.5,-37.1,-99.9,73,30,71,29.84,29.73,4,-585,9,0.11
2013-6-25,67.4,28.2,62.2,58.1,-31.7,-99.9,72,32,70,29.93,29.81,8,-555,22,0.26
2013-6-26,79.8,36.0,67.4,64.3,-22.1,-99.9,72,31,56,30.00,29.91,5,-518,13,0.00
2013-6-27,80.8,26.0,70.1,61.5,-46.9,-99.9,59,17,47,30.02,29.97,6,-663,16,0.00
2013-6-28,94.5,32.1,78.0,65.3,-42.1,-99.9,44,14,33,29.97,29.84,6,-636,14,0.00
2013-6-29,97.1,32.0,77.4,59.0,-44.5,-99.9,44,11,28,29.86,29.74,5,-643,17,0.00
2013-6-30,85.1,28.3,68.6,57.4,-44.7,-99.9,61,16,38,29.78,29.71,5,-644,13,0.00
2013-7-1,94.7,31.9,72.1,63.9,-42.1,-99.9,58,14,32,29.77,29.74,3,-637,12,0.00
2013-7-2,93.0,34.1,72.3,64.4,-36.8,-99.9,56,16,33,29.84,29.74,7,-597,13,0.00
2013-7-3,94.3,30.1,75.7,64.8,-45.3,-99.9,57,14,36,29.83,29.68,3,-654,12,0.00
2013-7-4,-200.0,0.0,200.0,-99.9,-99.9,-99.9,0,0,100,29.71,29.66,0,-999,0,0.00
2013-7-6,78.7,45.5,64.2,57.9,-3.9,-99.9,63,33,47,29.72,29.65,7,-380,12,0.00
2013-7-7,84.1,27.8,62.5,58.2,-44.6,-99.9,66,16,22,29.80,29.71,5,-637,12,0.00
2013-7-8,87.4,32.4,57.8,58.0,-35.3,-99.9,72,20,23,29.91,29.79,4,-576,9,0.00
2013-7-9,90.5,31.3,69.7,62.1,-41.2,-99.9,57,15,30,29.96,29.86,5,-626,13,0.00
2013-7-10,-200.0,0.0,200.0,-99.9,-99.9,-99.9,0,0,100,29.91,29.88,0,-999,0,0.00
2013-7-13,84.7,51.6,68.1,59.7,1.2,-99.9,54,29,41,29.88,29.83,7,-350,14,0.00
2013-7-14,78.2,27.0,60.5,57.7,-43.3,-99.9,68,19,47,29.92,29.82,6,-634,12,0.00
2013-7-15,67.3,26.9,54.3,54.1,-34.6,-99.9,72,29,61,29.86,29.79,8,-566,14,0.00
2013-7-16,62.7,24.9,56.5,52.5,-37.8,-99.9,72,29,69,29.97,29.81,8,-585,18,0.00
2013-7-17,64.8,5.4,58.6,53.9,-86.7,-99.9,71,6,68,30.03,29.97,1,-912,4,0.00
2013-7-20,88.4,50.9,68.6,61.7,1.0,-99.9,61,31,40,29.75,29.66,6,-362,13,0.00
2013-7-21,85.4,30.4,72.4,56.5,-42.3,-99.9,55,15,33,29.79,29.69,4,-622,12,0.00
2013-7-22,81.4,25.3,66.6,57.7,-48.4,-99.9,64,16,29,29.89,29.80,9,-663,20,0.00
2013-7-23,-200.0,0.0,200.0,-99.9,-99.9,-99.9,0,0,100,29.89,29.88,0,-999,0,0.00
2013-8-6,68.2,43.5,59.0,54.9,3.2,-99.9,70,45,62,29.98,29.93,6,-322,16,0.00
2013-8-7,63.1,10.4,59.0,52.7,-74.1,-99.9,71,12,69,30.04,29.98,5,-828,9,0.00
2013-8-8,-200.0,0.0,200.0,-99.9,-99.9,-99.9,0,0,100,29.91,29.91,0,-999,0,0.00
2013-8-10,74.0,49.0,60.9,58.5,11.5,-99.9,70,46,58,29.99,29.94,6,-283,13,0.00
2013-8-11,76.3,31.5,57.0,58.7,-29.9,-99.9,71,27,52,29.96,29.88,7,-548,16,0.00
2013-8-12,84.8,27.7,66.6,58.3,-45.4,-99.9,61,16,32,29.92,29.87,5,-647,13,0.00
2013-8-13,88.9,27.6,67.2,60.7,-47.1,-99.9,58,14,35,29.92,29.85,5,-659,15,0.00
2013-8-14,-200.0,0.0,200.0,-99.9,-99.9,-99.9,0,0,100,29.91,29.88,0,-999,0,0.00
2013-8-17,78.2,48.0,66.8,58.1,0.9,-99.9,66,34,42,29.90,29.81,8,-349,17,0.00
2013-8-18,95.9,32.9,80.5,64.3,-41.7,-99.9,48,14,33,29.81,29.71,5,-630,11,0.00
2013-8-19,90.7,35.2,78.7,62.9,-36.6,-99.9,49,15,30,29.82,29.71,4,-594,11,0.00
2013-8-20,81.9,26.5,63.4,57.5,-44.2,-99.9,67,19,38,29.84,29.74,4,-640,11,0.00
2013-8-21,77.9,30.7,59.3,56.9,-32.7,-99.9,70,25,42,29.88,29.79,5,-562,13,0.00
2013-8-22,71.8,35.6,59.0,56.6,-17.9,-99.9,71,34,58,29.91,29.84,7,-464,13,0.00
2013-8-24,75.5,48.8,64.4,58.9,7.0,-99.9,69,41,55,29.83,29.80,8,-317,21,0.00
2013-8-25,77.3,30.4,64.3,62.0,-33.5,-99.9,69,26,57,29.88,29.82,8,-582,19,0.00
2013-8-26,74.1,27.6,61.3,58.3,-38.5,-99.9,70,24,47,29.95,29.85,7,-598,15,0.00
2013-8-27,80.8,25.2,64.2,58.4,-46.5,-99.9,69,19,42,29.85,29.78,6,-656,15,0.00
2013-8-28,66.4,4.7,65.7,55.9,-89.0,-99.9,69,5,69,29.86,29.79,5,-928,6,0.00
2013-8-31,76.4,43.2,61.4,59.0,-5.2,-99.9,70,37,53,29.90,29.84,6,-395,16,0.00
2013-9-1,78.1,29.5,65.8,59.6,-36.4,-99.9,68,23,46,29.89,29.82,6,-593,14,0.00
2013-9-2,78.0,25.4,66.3,62.8,-45.0,-99.9,69,21,59,29.89,29.83,7,-657,15,0.00
2013-9-3,74.8,24.0,64.8,58.5,-47.6,-99.9,70,20,49,29.94,29.87,9,-662,22,0.00
2013-9-4,73.0,25.1,64.7,58.0,-44.5,-99.9,69,22,51,29.97,29.89,8,-643,28,0.00
2013-9-5,-200.0,0.0,200.0,-99.9,-99.9,-99.9,0,0,100,29.93,29.89,0,-999,0,0.00
2013-9-7,93.7,55.4,79.3,52.7,-6.7,-99.9,38,17,23,29.80,29.73,7,-376,16,0.00
2013-9-8,93.7,30.2,74.1,61.0,-45.4,-99.9,53,13,32,29.80,29.69,4,-653,12,0.00
2013-9-9,94.5,31.7,75.4,57.9,-44.9,-99.9,51,11,24,29.74,29.63,7,-640,15,0.00
2013-9-10,71.8,22.8,62.9,58.2,-47.2,-99.9,70,23,62,29.83,29.65,9,-660,22,0.00
2013-9-11,67.5,23.5,63.5,56.4,-44.4,-99.9,69,25,67,29.94,29.83,6,-640,15,0.00
2013-9-12,76.2,25.6,60.8,61.8,-41.7,-99.9,70,24,61,29.93,29.84,6,-628,15,0.00
2013-9-13,76.6,23.7,60.7,60.0,-46.6,-99.9,70,21,53,29.85,29.71,7,-657,17,0.00
2013-9-14,68.0,23.8,59.0,56.4,-42.7,-99.9,71,26,66,29.77,29.70,7,-618,16,0.00
2013-9-15,75.7,18.4,70.6,57.8,-60.6,-99.9,62,14,53,29.80,29.72,10,-748,12,0.00
2013-9-19,88.3,46.9,68.0,52.0,-15.7,-99.9,54,18,25,29.75,29.69,4,-433,11,0.00
2013-9-20,71.9,25.0,59.0,59.3,-41.8,-99.9,70,25,63,29.78,29.70,9,-625,22,0.00
2013-9-21,66.7,23.5,60.2,56.0,-43.3,-99.9,70,25,64,29.84,29.73,6,-628,14,0.24
2013-9-22,71.0,23.8,61.5,53.8,-46.0,-99.9,70,21,51,29.95,29.84,7,-644,16,0.00
2013-9-23,79.7,29.0,56.1,60.3,-35.7,-99.9,84,26,47,29.96,29.89,6,-588,18,0.00
2013-9-24,70.1,24.7,60.0,54.9,-42.9,-99.9,69,23,56,29.93,29.86,10,-623,22,0.00
2013-9-25,64.4,20.2,56.9,48.5,-52.0,-99.9,67,19,53,29.88,29.78,10,-672,22,0.00
2013-9-26,73.0,22.6,61.0,46.9,-53.3,-99.9,59,13,26,29.94,29.80,6,-669,14,0.00
2013-9-27,76.1,25.0,65.4,43.1,-52.0,-99.9,37,10,27,30.03,29.94,7,-656,15,0.00
2013-9-28,81.2,28.1,46.8,54.3,-42.7,-99.9,69,17,19,30.02,29.95,5,-601,12,0.00
2013-9-29,70.4,24.8,58.4,58.4,-41.9,-99.9,70,25,66,30.03,29.99,8,-626,17,0.00
2013-9-30,72.4,25.8,63.9,60.3,-40.7,-99.9,69,25,65,30.00,29.92,7,-622,15,0.00
2013-10-1,69.5,23.1,60.7,50.0,-48.5,-99.9,65,18,47,29.95,29.87,7,-653,16,0.00
2013-10-2,71.2,23.8,58.0,51.6,-46.4,-99.9,63,19,45,29.95,29.88,7,-636,15,0.00
2013-10-3,71.9,22.4,61.5,43.7,-53.8,-99.9,49,12,25,30.03,29.91,6,-669,19,0.00
2013-10-4,80.1,26.3,63.5,37.1,-55.1,-99.9,32,6,15,30.03,29.93,6,-652,16,0.00
2013-10-5,82.5,26.9,69.0,39.5,-54.5,-99.9,34,6,16,30.12,30.03,6,-654,17,0.00
2013-10-6,83.6,27.5,68.1,45.4,-51.1,-99.9,36,9,16,30.07,29.93,6,-642,14,0.00
2013-10-7,81.9,36.1,50.0,42.5,-27.9,-99.9,52,18,14,29.94,29.83,6,-462,14,0.00
2013-10-8,77.1,24.5,52.0,48.4,-48.9,-99.9,77,15,30,29.84,29.65,7,-643,14,0.00
2013-10-9,69.0,21.8,61.3,45.0,-52.7,-99.9,55,14,39,29.71,29.57,6,-669,14,0.00
2013-10-10,-200.0,0.0,200.0,-99.9,-99.9,-99.9,0,0,100,29.81,29.70,0,-999,0,0.00
2013-10-19,80.1,16.0,68.7,49.4,-67.9,-99.9,47,9,33,29.97,29.92,1,-783,5,0.00
2013-10-20,80.7,26.2,59.7,50.4,-48.1,-99.9,61,14,28,29.96,29.84,6,-646,12,0.00
2013-10-21,76.8,30.7,43.7,54.2,-26.3,-99.9,88,32,37,29.94,29.84,7,-499,11,0.00
2013-10-22,78.5,24.2,56.9,52.7,-49.4,-99.9,71,16,31,29.95,29.85,5,-660,12,0.00
2013-10-23,76.6,24.8,43.3,54.1,-43.5,-99.9,87,22,41,29.92,29.82,4,-615,9,0.00
2013-10-24,62.8,15.8,53.1,49.8,-60.1,-99.9,71,18,62,30.05,29.91,4,-728,8,0.00
2013-10-25,72.1,20.9,56.2,52.1,-51.3,-99.9,71,20,49,30.11,30.02,3,-675,9,0.00
2013-10-26,80.5,23.2,57.9,52.0,-53.2,-99.9,62,13,31,30.09,29.96,6,-684,11,0.00
2013-10-27,59.0,24.7,43.3,48.4,-32.8,-99.9,88,35,67,29.96,29.63,8,-528,20,0.00
2013-10-28,60.4,32.7,49.2,46.4,-13.6,-99.9,85,43,55,29.77,29.60,6,-397,14,0.00
2013-10-29,62.6,33.9,49.2,47.3,-9.0,-99.9,85,46,57,30.00,29.77,4,-375,10,0.00
2013-10-30,66.9,23.1,40.8,49.4,-43.4,-99.9,89,25,52,30.09,30.00,6,-607,10,0.00
2013-10-31,74.9,36.3,41.6,50.3,-4.7,-99.9,87,45,38,30.13,30.01,5,-331,10,0.00
2013-11-1,72.5,29.8,46.7,46.2,-30.8,-99.9,80,26,37,30.09,29.96,6,-519,16,0.00
2013-11-2,69.7,28.3,47.0,51.5,-28.8,-99.9,79,31,43,29.98,29.86,6,-510,18,0.00
2013-11-3,63.4,18.3,47.8,42.2,-57.3,-99.9,73,14,34,30.00,29.88,4,-687,10,0.00
2013-11-4,71.5,26.8,37.6,41.9,-35.9,-99.9,85,23,22,30.04,29.87,7,-518,12,0.00
2013-11-5,74.2,38.3,42.6,41.9,-7.4,-99.9,76,35,26,30.17,30.02,4,-322,9,0.00
2013-11-6,69.3,37.2,46.8,40.4,-13.2,-99.9,66,30,32,30.20,30.10,5,-360,13,0.00
2013-11-7,75.8,23.2,61.7,47.7,-52.2,-99.9,60,13,28,30.12,30.01,4,-666,10,0.00
2013-11-8,74.4,26.6,54.6,53.2,-42.8,-99.9,70,20,41,30.02,29.92,5,-608,12,0.00
2013-11-9,71.9,37.1,47.3,47.7,-14.8,-99.9,80,31,40,29.99,29.91,6,-413,13,0.01
2013-11-10,65.2,35.5,43.6,50.4,-3.9,-99.9,88,49,57,30.06,29.97,5,-336,15,0.00
2013-11-11,67.0,31.1,41.4,50.4,-16.4,-99.9,92,43,54,30.12,30.02,5,-417,10,0.00
2013-11-12,55.3,27.8,53.1,48.6,-24.2,-99.9,80,40,73,30.20,30.09,2,-483,3,0.00
2013-11-16,62.3,26.3,55.5,47.8,-35.1,-99.9,69,28,52,29.87,29.76,10,-554,23,0.00
2013-11-17,61.2,19.6,43.5,48.5,-48.3,-99.9,87,25,61,30.03,29.86,5,-636,11,0.00
2013-11-18,56.4,21.7,40.9,45.9,-38.5,-99.9,88,32,66,30.10,30.02,5,-566,11,0.00
2013-11-19,52.8,10.0,51.3,49.3,-72.2,-99.9,88,16,87,30.04,29.87,3,-807,9,0.03
2013-11-20,58.5,14.4,55.0,52.6,-62.0,-99.9,89,19,61,29.88,29.78,3,-743,12,0.70
2013-11-21,63.5,29.6,48.3,46.6,-27.2,-99.9,89,31,22,29.94,29.84,4,-466,17,0.00
2013-11-22,72.4,53.1,54.4,28.7,-2.6,-99.9,27,13,11,29.97,29.85,5,-147,16,0.00
2013-11-23,63.2,39.2,42.1,37.3,-5.5,-99.9,83,31,19,30.05,29.89,7,-278,15,0.00
2013-11-24,62.1,35.1,38.0,44.4,1.9,-99.9,91,53,45,30.21,30.05,5,-264,12,0.00
2013-11-25,60.3,27.2,38.0,45.4,-22.6,-99.9,87,40,55,30.28,30.20,5,-447,12,0.00
2013-11-26,61.1,28.9,44.7,43.7,-24.4,-99.9,84,33,46,30.23,29.99,3,-461,13,0.00
2013-11-27,55.0,34.3,50.6,43.1,-8.4,-99.9,70,44,61,29.99,29.89,3,-337,10,0.00
2013-11-30,69.2,26.8,44.0,50.5,-37.5,-99.9,70,24,46,30.21,30.12,4,-564,9,0.00
2013-12-1,72.8,45.0,43.4,51.4,20.7,-99.9,87,60,41,30.29,30.16,1,-151,4,0.00
2013-12-2,61.8,28.7,43.1,49.5,-20.4,-99.9,88,42,62,30.18,29.91,6,-446,12,0.00
2013-12-3,52.6,18.1,36.2,48.2,-46.8,-99.9,88,29,56,29.91,29.79,5,-619,16,0.00
2013-12-4,50.9,30.1,29.8,34.6,2.3,-99.9,88,57,38,30.05,29.90,6,-201,11,0.01
2013-12-5,50.2,24.7,26.5,30.6,-15.4,-99.9,85,44,34,30.11,30.04,4,-315,11,0.01
2013-12-6,49.6,33.5,28.6,45.7,14.8,-99.9,92,69,59,30.14,29.85,6,-137,17,0.97
2013-12-7,46.7,24.3,34.3,39.7,-22.1,-99.9,89,42,46,30.21,29.87,7,-404,18,0.01
2013-12-8,43.7,20.1,28.5,30.4,-35.2,-99.9,88,31,44,30.26,30.18,4,-472,11,0.00
2013-12-19,59.0,24.0,38.0,38.7,-39.9,-99.9,67,23,40,29.89,29.74,5,-562,10,0.00
2013-12-20,64.1,38.3,32.9,36.4,2.5,-99.9,73,39,20,29.96,29.88,3,-189,11,0.01
2013-12-21,61.9,16.1,52.6,49.6,-59.7,-99.9,69,18,64,30.03,29.93,3,-726,10,0.00
2013-12-22,62.9,21.4,41.1,43.6,-46.4,-99.9,74,22,42,30.24,30.03,6,-617,9,0.00
2013-12-23,63.4,20.2,44.3,42.1,-51.9,-99.9,71,17,41,30.33,30.23,3,-656,11,0.00
2013-12-24,71.3,19.1,41.5,48.2,-56.4,-99.9,70,15,39,30.29,30.14,3,-696,6,0.00
2013-12-25,62.6,28.9,41.9,42.0,-24.1,-99.9,85,34,43,30.25,30.15,6,-447,18,0.00
2013-12-26,55.2,35.2,48.8,39.2,-7.1,-99.9,67,39,48,30.19,30.17,2,-322,4,0.00